Location: Advent Pentecost Church
(32.7757°N, 96.7408°W)
Time: 13:52:41
(UTC+00:00)

N. Korean satellite - Pass Details

Date: 22 October 2021
Orbit: 447 x 495 km, 97.3° (Epoch: 03 December)

Event Time Altitude Azimuth Distance (km) Brightness Sun altitude
Rises 11:15:00 0° 19° (NNE) 2,587 10.5 -17.8°
Reaches altitude 10° 11:17:10 10° 27° (NNE) 1,696 9.6 -17.4°
Maximum altitude 11:20:38 41° 99° (E) 728 8.0 -16.7°
Drops below altitude 10° 11:24:03 10° 170° (S) 1,667 9.4 -15.9°
Sets 11:26:10 0° 178° (S) 2,535 10.3 -15.5°
